STARLINK-31959, 59925

Orbit data source: Space-Track

STARLINK-31959, 59925 is a payload satellite owned by SpaceX/Seattle (US) in LEO that was launched on Sat, 01 Jun 2024 UTC via an FALCON 9 launch vehicle from the Air Force Eastern Test Range (AFETR). Payload-class satellites include a variety of spacecraft equipped with specific instruments for various scientific and technological missions. These include communications satellites like Starlink; space stations such as the ISS; scientific satellites like the Hubble; Earth observation satellites from companies like Planet Labs, Umbra, and HawkEye 360; GPS; miniature CubeSats for education and research; and military/defense satellites.

Loading next visibility...
Identifier
59925, 2024-106D
Orbit
LEO
Last TLE update
15 hours ago
Origin
Manufacturer
SpaceX/Seattle
Mission
Operational spacecraft
Bus & Motor
STARLINK V2M, Unknown motor
Mass
730 kg wet, ~700 kg dry
Launch date (UTC)
2024-06-01 (11 months ago)
Launch vehicle
FALCON 9
Launch site
Air Force Eastern Test Range (AFETR)
Object type
Payload
Rocket body
Debris
Shape & HBR
Unknown
Radar Cross Section
Large (>1 m²)

Expand to show TLE details & history

TLE from 15 hours ago
0 STARLINK-31959
1 59925U 24106D   25128.64465904  .00000713  00000-0  35444-4 0  9994
2 59925  43.0007 251.4134 0001092 279.1133  80.9595 15.27581022 53933
Epoch: 2025-05-08T15:28Z
Definitive object data (Epoch: 2025-05-08T15:28:18.541Z)
Latitude
-0°
Longitude
152.62395°
Altitude
482.704 km
Speed
7.626 km/s
True Right ascension
16h 45m 39s
True Declination
0° 00' 00"
Sunlit
Object was in full shadow at TLE epoch
Visualization TLE readout
Latitude
-37.31516°
Longitude
94.61883°
Altitude
493.259 km
Speed
7.619 km/s
Apparent Right ascension
08h 41m 20s
Apparent Declination
-70° 22' 47"
Sunlit
Object is in full shadow
Visualization observer readout
Local Sidereal Time
15:02:28
Azimuth
205.448° SW
Elevation
-38.911°
Doppler factor
1
Orbital elements
Apogee altitude
485.741 km
Perigee altitude
484.242 km
Semi-major axis
6,863.128 km
Eccentricity
0.0001092
Inclination
43.0007°
RAAN
251.4134°
Arg. of periapsis
279.1133°
True anomaly
80.97186°
Mean anomaly
80.9595°
Eccentric anomaly
80.96568°
Mean motion
3.81733 °/min
BSTAR
0.000035444
Orbital period
94.31 mins
Loading maneuver chart data...
Loading SW <> Apogee altitude chart data...
Loading historical data...
Loading historical data...
Loading historical data...
Loading historical data...
Loading historical data...
Loading historical data...
Loading historical data...

STARLINK-31959 Visibility forecast

Observer location: undefined°, undefined°

Span
Click to sort rows by Start time (UTC) header in descending order
Start Az.
Max El. time (UTC)
Max El. Az.
Max El.
End time (UTC)
End Az.
5 mins2025-05-09 12:07:33.437Z237.794° WSW2025-05-09 12:09:33.437Z171.64° S43.44°2025-05-09 12:12:33.437Z75.403° E
5 mins2025-05-09 13:46:33.437Z285.582° WNW2025-05-09 13:48:33.437Z344.612° N38.485°2025-05-09 13:51:33.437Z70.04° E
6 mins2025-05-09 15:25:33.437Z293.139° NW2025-05-09 15:27:33.437Z333.206° NNW41.718°2025-05-09 15:31:33.437Z97.409° ESE
5 mins2025-05-09 17:04:33.437Z266.37° W2025-05-09 17:06:33.437Z217.234° SW30.15°2025-05-09 17:09:33.437Z147.054° SSE
|